Terminal Aerodrome Forecast
Issued by NWS Norman, OK

Home | Current Version | Previous Version | Text Only | Print | Product List | Glossary On
Versions: 1 2 3 4 5 6 7 8 9 10 11 12 13 14 15 16 17 18 19 20 21 22 23 24 25 26 27 28 29 30 31 32 33 34 35
000
FTUS44 KOUN 190520
TAFOKC
TAF
KOKC 190520Z 1906/2006 16012KT P6SM FEW100 OVC200
     FM191400 13012KT P6SM SCT035 BKN060
     FM192000 35010G19KT P6SM SCT250=

USA.gov is the U.S. government's official web portal to all federal, state and local government web resources and services.